Back to catalog

STARLINK-34221

AliveCommunicationsVLEO
NORAD 64453·PAYLOAD·🇺🇸 United States

Launched Jun 18, 2025 from Cape Canaveral Space Force Station

Loading…

Next Passes (next 24 hours)

TLE

FreshSource: CelesTrak SupGP

Epoch: Sep 14, 2026, 14:56 UTC

1 64453C 25130R   26257.62270833  .00013307  00000+0  39321-3 0  2577
2 64453  53.1580 286.8840 0001118  70.9053  54.3391 15.34379178    11

Track STARLINK-34221 in real time with AllMySat

Download on the App Store